Meteo Giornale » Osservazioni meteo Italia » Capo Mele

ore: 13:55 - Osservazioni Meteo Capo Mele
Lat. 43° 57' N Lon. 8° 10' E Alt. 220 metri s.l.m.

nuvoloso Europe/Rome

16 °C

Nuvoloso

Temp. 24 Ore

14 °C

19 °C

Est

31.5 Km/h

Dew point 14 °C

Umidità 87 %

Visibilità  10 Km

Il sole sorge alle ore 07:48

Il sole tramonta alle ore 18:35

Data e Ora Cielo e Fenomeni T °C DP °C Um. % Pres. hPa Vis. km Vento km/h
Oggi h: 13:55 nuvoloso Nuvoloso 16 14 87 1024 10 E 31.5
Oggi h: 12:55 nuvoloso Nuvoloso 16 14 87 1024 10 E/NE 24
Oggi h: 11:55 nuvoloso Nuvoloso 16 14 87 1024 10 E 25.9
Oggi h: 10:55 nuvoloso Nuvoloso 16 13 82 1024 10 E/NE 25.9
Oggi h: 09:55 nuvoloso Nuvoloso 16 12 77 1023 10 NE 27.8
Oggi h: 08:55 poco_nuvoloso Poco Nuvoloso 15 13 87 1023 10 N/NE 18.5
Oggi h: 07:55 poco_nuvoloso Poco Nuvoloso 15 12 82 1023 10 NE 16.7
Oggi h: 06:55 sereno Sereno 15 12 82 1023 10 N/NE 20.3
Oggi h: 04:55 poco_nuvoloso Poco Nuvoloso 14 11 82 1023 10 N 20.3
Oggi h: 03:55 sereno Sereno 14 11 82 1024 10 N/NE 22.2
Oggi h: 02:55 sereno Sereno 14 11 82 1024 10 N 22.2
Oggi h: 01:55 sereno Sereno 14 11 82 1024 10 N 20.3
Oggi h: 00:55 sereno Sereno 14 11 82 1024 10 N 18.5
Ieri h: 23:55 sereno Sereno 14 11 82 1024 10 N/NE 20.3
Ieri h: 22:55 sereno Sereno 15 12 82 1024 10 N/NE 16.7
Ieri h: 21:55 sereno Sereno 15 12 82 1024 10 N/NE 16.7
Ieri h: 20:55 sereno Sereno 15 12 82 1024 10 N/NE 18.5
Ieri h: 19:55 sereno Sereno 15 11 76 1024 10 N/NE 20.3
Ieri h: 18:55 sereno Sereno 18 12 67 1025 10 N/NE 18.5
Ieri h: 17:55 sereno Sereno 19 12 63 1025 10 N/NE 13
Ieri h: 16:55 sereno Sereno 19 13 68 1025 10 N/NE 11.1